STARLINK-1247, 45236

Orbit data source: Space-Track

STARLINK-1247, 45236 is a payload satellite owned by SpaceX/Seattle (US) in LEO that was launched on Mon, 17 Feb 2020 UTC via an FALCON 9 launch vehicle from the Air Force Eastern Test Range (AFETR). Payloads include a variety of satellites, spacecraft, and rockets equipped with specific instruments for various scientific and technological missions. These include communications satellites like Starlink; space stations such as the ISS; scientific satellites like the Hubble; Earth observation satellites from companies like Planet Labs, Umbra, and HawkEye 360; GPS; miniature CubeSats for education and research; and military/defense satellites.

Loading next visibility...
STARLINK-1247 details
Identifier
45236, 2020-012BL
Orbit
LEO
Last TLE update10 hours ago
Origin
Flag of USSpaceX/Seattle (US)
ManufacturerSpaceX/Seattle
MissionOperational Commercial Communications
Bus & MotorSTARLINK, Unknown motor
Mass260 kg wet, ~248 kg dry
Launch date (UTC)
2020-02-17 (5 years ago)
Launch vehicle
FALCON 9
Launch site
Air Force Eastern Test Range (AFETR)
Object type
Payload
Rocket body
Debris
Shape & HBRBox + 1 Pan, 8.86 m
Radar Cross Section13.562 m², Large (>1 m²)

Expand to show TLE details & history

TLE from 10 hours ago
0 STARLINK-1247
1 45236U 20012BL  24361.20533440 -.00001068  00000-0 -52835-4 0  9996
2 45236  53.0531 175.0472 0001259  87.9865 272.1268 15.06391487269307
Epoch: 2024-12-26T04:55Z
Definitive object data (Epoch: 2024-12-26T04:55:40.892Z)
Latitude-0.00002°
Longitude5.93873°
Altitude548.084 km
Speed7.589 km/s
True Right ascension11h 40m 11s
True Declination0° 00' 00"
Sunlit
Object was in daylight at TLE epoch
Visualization TLE readout
Latitude51.32507°
Longitude114.92298°
Altitude552.515 km
Speed7.592 km/s
Apparent Right ascension22h 57m 04s
Apparent Declination13° 59' 18"
Sunlit
Object is in daylight
Visualization observer readout
Local Sidereal Time14:18:07
Azimuth51.975° ENE
Elevation-18.705°
Doppler factor1
Orbital elements
Apogee altitude548.381 km
Perigee altitude546.637 km
Semi-major axis6,925.646 km
Eccentricity0.0001259
Inclination53.0531°
RAAN175.0472°
Arg. of periapsis87.9865°
True anomaly272.11238°
Mean anomaly272.1268°
Eccentric anomaly272.11959°
Mean motion3.76576 °/min
BSTAR-0.000052835
Orbital period95.6 mins
Loading maneuver chart data...

STARLINK-1247 Visibility forecast

Observer location: undefined°, undefined

Span
Click to sort rows by Start time (UTC) header in descending order
Start Az.
Max El. time (UTC)
Max El. Az.
Max El.
End time (UTC)
End Az.
5 mins2024-12-26 16:20:11.602Z291.205° WNW2024-12-26 16:23:11.602Z345.099° N20.228°2024-12-26 16:25:11.602Z20.17° NNE
4 mins2024-12-26 19:43:11.602Z356.111° N2024-12-26 19:44:11.602Z15.511° NNE18.981°2024-12-26 19:47:11.602Z66.394° ENE
6 mins2024-12-26 21:22:11.602Z313.148° NW2024-12-26 21:24:11.602Z339.416° N44.085°2024-12-26 21:28:11.602Z127.734° SE
6 mins2024-12-27 14:34:11.602Z240.21° WSW2024-12-27 14:36:11.602Z273.942° WNW42.24°2024-12-27 14:40:11.602Z46.225° ENE
|